Weather History for KASH - January, 2013

Change the Weather History Date:

Thursday, January 31, 2013

  Actual Average Record
Temperature  
Mean Temperature 45 °F -  
Max Temperature 60 °F 33 °F 60 °F (2013)
Min Temperature 29 °F 13 °F -15 °F (1962)
Degree Days  
Heating Degree Days 20    
Moisture  
Dew Point 38 °F    
Average Humidity 69    
Maximum Humidity 96    
Minimum Humidity 36    
Precipitation  
Precipitation 0.53 in - - ()
Sea Level Pressure  
Sea Level Pressure 29.71 in    
Wind  
Wind Speed 13 mph (WSW)    
Max Wind Speed 31 mph    
Max Gust Speed 46 mph    
Visibility 7 miles    
Events Rain    
Averages and records for this station are not official NWS values.
T = Trace of Precipitation, MM = Missing Value Source: NWS Daily Summary

Daily Weather History Graph

Daily Weather History Graph

Search for Another Location

Airport or City:

Trip Planner

Search our weather history database for the weather conditions in past years. The results will help you decide how hot, cold, wet, or windy it might be!

Date:

Astronomy

Jan. 31, 2013 Rise Set
Actual Time 7:01 AM EST 4:58 PM EST
Civil Twilight 6:31 AM EST 5:28 PM EST
Nautical Twilight 5:57 AM EST 6:02 PM EST
Astronomical Twilight 5:24 AM EST 6:35 PM EST
Moon 10:06 PM EST (1/31) 8:51 AM EST (1/31)
Length of Visible Light 10h 56m
Length of Day
9h 56m
Waning Gibbous, 80% of the Moon is Illuminated
Jan 31
Waning Gibbous
Feb 3
Last Quarter
Feb 10
New
Feb 17
First Quarter
Feb 25
Full

Hourly Weather History & Observations

Time (EST) Temp. Windchill Dew Point Humidity Pressure Visibility Wind Dir Wind Speed Gust Speed Precip Events Conditions
12:51 AM 55.9 °F - 54.9 °F 96% 30.09 in 5.0 mi South 8.1 mph - 0.00 in   Overcast
1:51 AM 57.9 °F - 54.9 °F 90% 30.02 in 3.0 mi SSE 9.2 mph 19.6 mph 0.01 in Rain Light Rain
2:51 AM 57.9 °F - 54.9 °F 90% 29.94 in 8.0 mi South 11.5 mph 19.6 mph 0.03 in Rain Light Rain
3:51 AM 59.9 °F - 55.9 °F 87% 29.87 in 8.0 mi South 10.4 mph 23.0 mph 0.03 in Rain Light Rain
4:51 AM 59.9 °F - 55.9 °F 87% 29.79 in 7.0 mi South 12.7 mph 26.5 mph 0.00 in Rain Light Rain
5:31 AM 60.8 °F - 55.4 °F 82% 29.01 in 2.5 mi SSE 10.4 mph 24.2 mph 0.09 in Rain Light Rain
5:39 AM 60.8 °F - 55.4 °F 82% 28.99 in 3.0 mi SSE 15.0 mph 25.3 mph 0.12 in Rain Rain
5:51 AM 59.9 °F - 56.8 °F 90% 29.69 in 2.5 mi SSE 9.2 mph 19.6 mph 0.17 in Rain Rain
6:07 AM 60.8 °F - 57.2 °F 88% 28.97 in 4.0 mi SSE 12.7 mph 21.9 mph 0.02 in Rain Light Rain
6:24 AM 60.8 °F - 57.2 °F 88% 28.99 in 1.8 mi South 12.7 mph 24.2 mph 0.06 in Rain Rain
6:34 AM 60.8 °F - 57.2 °F 88% 29.00 in 3.0 mi South 11.5 mph 28.8 mph 0.08 in Rain Light Rain
6:51 AM 59.9 °F - 55.9 °F 87% 29.72 in 5.0 mi Variable 6.9 mph - 0.10 in Rain Light Rain
7:24 AM 57.2 °F - 55.4 °F 94% 28.98 in 10.0 mi Variable 5.8 mph - 0.07 in Rain Light Rain
7:51 AM 56.8 °F - 54.0 °F 90% 29.66 in 10.0 mi South 9.2 mph - 0.07 in   Clear
8:51 AM 56.8 °F - 50.9 °F 80% 29.65 in 10.0 mi South 10.4 mph 19.6 mph 0.00 in   Mostly Cloudy
9:00 AM 53.6 °F - 44.6 °F 72% 28.99 in 1.2 mi WNW 31.1 mph 46.0 mph 0.08 in Rain Heavy Rain
9:03 AM 50.0 °F - 41.0 °F 71% 28.99 in 0.5 mi WNW 23.0 mph 46.0 mph 0.10 in Rain Heavy Rain
9:10 AM 46.4 °F 38.5 °F 39.2 °F 76% 28.99 in 6.0 mi WNW 21.9 mph 34.5 mph 0.11 in Rain Light Rain
9:51 AM 43.9 °F 35.9 °F 36.9 °F 76% 29.78 in 6.0 mi West 18.4 mph 23.0 mph 0.11 in Rain Light Rain
10:51 AM 45.0 °F 37.4 °F 34.9 °F 68% 29.83 in 10.0 mi West 18.4 mph 25.3 mph 0.01 in   Partly Cloudy
11:51 AM 43.9 °F 36.8 °F 26.1 °F 50% 29.88 in 10.0 mi West 15.0 mph 39.1 mph N/A   Clear
12:51 PM 45.0 °F 36.6 °F 23.0 °F 42% 29.91 in 10.0 mi WNW 21.9 mph 31.1 mph N/A   Scattered Clouds
1:51 PM 41.9 °F 32.3 °F 18.1 °F 38% 29.96 in 10.0 mi WNW 23.0 mph 31.1 mph N/A   Scattered Clouds
2:51 PM 41.0 °F 31.1 °F 16.2 °F 37% 30.01 in 10.0 mi WNW 23.0 mph 28.8 mph N/A   Clear
3:51 PM 39.9 °F 32.1 °F 15.1 °F 36% 30.06 in 10.0 mi WNW 13.8 mph 20.7 mph N/A   Scattered Clouds
4:51 PM 36.9 °F 26.8 °F 16.2 °F 43% 30.10 in 10.0 mi WNW 18.4 mph 23.0 mph N/A   Scattered Clouds
5:51 PM 36.0 °F 30.3 °F 16.2 °F 45% 30.15 in 10.0 mi Variable 6.9 mph - N/A   Mostly Cloudy
6:51 PM 34.0 °F 27.2 °F 15.1 °F 46% 30.19 in 10.0 mi West 8.1 mph 17.3 mph N/A   Clear
7:51 PM 32.9 °F 21.6 °F 14.0 °F 46% 30.22 in 10.0 mi West 18.4 mph 27.6 mph N/A   Partly Cloudy
8:51 PM 32.0 °F 21.2 °F 15.1 °F 50% 30.26 in 10.0 mi West 16.1 mph 24.2 mph N/A   Partly Cloudy
9:51 PM 30.0 °F 19.5 °F 15.1 °F 54% 30.29 in 10.0 mi West 13.8 mph 23.0 mph N/A   Clear
10:51 PM 30.0 °F 19.5 °F 12.0 °F 47% 30.30 in 10.0 mi West 13.8 mph 20.7 mph N/A   Clear
11:51 PM 29.1 °F 22.1 °F 13.1 °F 51% 30.31 in 10.0 mi Variable 6.9 mph - N/A   Partly Cloudy